Weather History for Olathe, KS

Change the Weather History Date:

Monday, June 18, 2012

  Actual Average Record
Temperature  
Mean Temperature 85 °F 74 °F  
Max Temperature 94 °F 84 °F 102 °F (1953)
Min Temperature 75 °F 65 °F 52 °F (2000)
Degree Days  
Heating Degree Days 0 0  
Month to date heating degree days 8 6  
Since 1 June heating degree days 8 6  
Since 1 July heating degree days 3815 4932  
Cooling Degree Days 20 9  
Month to date cooling degree days 159 132  
Year to date cooling degree days 419 236  
Since 1 June cooling degree days 159 132  
Growing Degree Days 34 (Base 50)    
Moisture  
Dew Point 65 °F    
Average Humidity 58    
Maximum Humidity 74    
Minimum Humidity 41    
Precipitation  
Precipitation 0.00 in 0.19 in 1.97 in (1977)
Month to date precipitation 0.33 3.78  
Year to date precipitation 11.72 18.52  
Sea Level Pressure  
Sea Level Pressure 29.68 in    
Wind  
Wind Speed 16 mph (SSW)    
Max Wind Speed 25 mph    
Max Gust Speed 35 mph    
Visibility 10 miles    
Events      
T = Trace of Precipitation, MM = Missing Value Source: NWS Daily Summary

Daily Weather History Graph

Daily Weather History Graph

Search for Another Location

Airport:

Trip Planner

Search our weather history database for the weather conditions in past years. The results will help you decide how hot, cold, wet, or windy it might be!

Date:

Astronomy

Jun. 18, 2012 Rise Set
Actual Time 5:53 AM CDT 8:46 PM CDT
Civil Twilight 5:21 AM CDT 9:19 PM CDT
Nautical Twilight 4:41 AM CDT 9:59 PM CDT
Astronomical Twilight 3:54 AM CDT 10:45 PM CDT
Moon 5:08 AM CDT (6/18) 8:06 PM CDT (6/18)
Length of Visible Light 15h 57m
Length of Day
14h 53m
Waning Crescent, 1% of the Moon is Illuminated
Jun 18
Waning Crescent
Jun 19
New
Jun 26
First Quarter
Jul 3
Full
Jul 10
Last Quarter

Hourly Weather History & Observations

Time (CDT) Temp. Heat Index Dew Point Humidity Pressure Visibility Wind Dir Wind Speed Gust Speed Precip Events Conditions
12:53 AM 80.1 °F 82.3 °F 66.9 °F 64% 29.68 in 10.0 mi South 15.0 mph 23.0 mph N/A   Clear
1:53 AM 79.0 °F - 68.0 °F 69% 29.69 in 10.0 mi SSW 13.8 mph - N/A   Clear
2:53 AM 78.1 °F - 68.0 °F 71% 29.68 in 10.0 mi SSW 17.3 mph 25.3 mph N/A   Clear
3:53 AM 77.0 °F - 68.0 °F 74% 29.68 in 10.0 mi SSW 15.0 mph 24.2 mph N/A   Clear
4:53 AM 75.9 °F - 66.9 °F 74% 29.68 in 10.0 mi SSW 16.1 mph 25.3 mph N/A   Clear
5:53 AM 75.9 °F - 66.9 °F 74% 29.67 in 10.0 mi SSW 15.0 mph 26.5 mph N/A   Clear
6:53 AM 75.9 °F - 66.9 °F 74% 29.68 in 10.0 mi SSW 16.1 mph 25.3 mph N/A   Clear
7:53 AM 77.0 °F - 66.9 °F 71% 29.68 in 10.0 mi SSW 13.8 mph 26.5 mph N/A   Clear
8:53 AM 80.1 °F 82.1 °F 66.0 °F 62% 29.69 in 10.0 mi SSW 16.1 mph 29.9 mph N/A   Clear
9:53 AM 82.9 °F 85.4 °F 66.9 °F 58% 29.68 in 10.0 mi SSW 16.1 mph 31.1 mph N/A   Clear
10:53 AM 86.0 °F 88.8 °F 66.9 °F 53% 29.68 in 10.0 mi SSW 19.6 mph 26.5 mph N/A   Clear
11:53 AM 88.0 °F 89.6 °F 64.9 °F 46% 29.68 in 10.0 mi SW 19.6 mph 28.8 mph N/A   Clear
12:53 PM 90.0 °F 91.3 °F 64.0 °F 42% 29.67 in 10.0 mi South 21.9 mph 31.1 mph N/A   Clear
1:53 PM 91.9 °F 94.1 °F 64.9 °F 41% 29.66 in 10.0 mi South 16.1 mph 29.9 mph N/A   Clear
2:53 PM 93.0 °F 95.9 °F 66.0 °F 41% 29.66 in 10.0 mi South 18.4 mph 29.9 mph N/A   Clear
3:53 PM 91.9 °F 94.5 °F 66.0 °F 42% 29.65 in 10.0 mi South 20.7 mph 31.1 mph N/A   Clear
4:53 PM 91.9 °F 94.5 °F 66.0 °F 42% 29.65 in 10.0 mi South 21.9 mph 31.1 mph N/A   Clear
5:53 PM 91.9 °F 94.5 °F 66.0 °F 42% 29.65 in 10.0 mi SSW 18.4 mph 27.6 mph N/A   Clear
6:53 PM 90.0 °F 91.7 °F 64.9 °F 43% 29.66 in 10.0 mi South 17.3 mph 28.8 mph N/A   Clear
7:53 PM 88.0 °F 88.7 °F 63.0 °F 43% 29.67 in 10.0 mi South 17.3 mph 24.2 mph N/A   Clear
8:53 PM 84.9 °F 85.4 °F 62.1 °F 46% 29.68 in 10.0 mi South 11.5 mph 20.7 mph N/A   Clear
9:53 PM 82.9 °F 83.7 °F 62.1 °F 49% 29.70 in 10.0 mi South 10.4 mph - N/A   Clear
10:53 PM 82.0 °F 82.7 °F 61.0 °F 49% 29.72 in 10.0 mi South 11.5 mph - N/A   Clear
11:53 PM 81.0 °F 81.7 °F 61.0 °F 50% 29.73 in 10.0 mi South 13.8 mph 23.0 mph N/A   Clear